Погода в Светловодске

Погода в Светловодске : погода сейчас, прогноз погоды и архив. Всё, что Вы хотите узнать о погоде в Светловодске!

Хотите узнать прогноз погоды в Светловодске? Тогда Вам сюда: Погода в Светловодске

Поиск расширенной информации на нашем сайте:

Другие новости

Новости СМИ2

Главная страница сайта

Новости сайта

02.10.2013

Напоминаем, что на нашем новом сайте вы можете получить высокодетализированные прогнозы погоды по пунктам России, СНГ и мира (включающие важные для авиации метеовеличины, такие как направление и скорость ветра, видимость, явления погоды, количество и форма облачности, нижняя и верхняя граница облачности), а также ознакомиться с разнообразными материалами по авиационной метеорологии и подборкой полезных ссылок на эту тему.

Сайт Метеоцентр.Азия посвящён разработке технологий оптимизации авиаметеорологического обслуживания, включая проектирование и перспективное создание нескольких автоматизированных авиаметеорологических систем:
- система выпуска высокодетальных прогностических карт явлений погоды для нижнего воздушного пространства по России и ближнему зарубежью;
- система верификации прогнозов TAF (выпускаемых синоптиками официальных АМСГ РФ и ближнего зарубежья) и AUTOTAF (выпускаемых сайтом Метеоцентр.Азия) - выявление ошибок, онлайн-сопоставление с фактической погодой METAR, автоматическое внесение коррективов в прогнозы при резком отклонении фактической погоды от прогноза, подсчёт оправдываемости прогнозов по элементам и в целом;
- система обработки, анализа и отображения авиаметеорологической информации для применения провайдерами метеорологической информации.

Рекомендуем: Свежая информация стол обеденный италия на нашем сайте.

Погода в Светловодске - сегодня

Время (UTC), дата Ветер
(°,м/с) 
Видим.   Явления Облачность Т
(°С)
Тd
(°С)
f(%) Тe
(°С)
Pmin
(гПа)
dP
(гПа)
Po
(мм)
O2
(г/м3)
Тmin Tmax R s Состояние
почвы
06 25.04.17 270 (З) 10 км    ясно 
+7.2 +1.2 66 +7  1021.9  1.5  759  298  +3.4         
09 25.04.17 310 (СЗ) 20000 м    4/4 600 м 
[Cu hum]
+9.6 -0.9 48 +10  1022.8  759  296           
12 25.04.17 250 (З) 20000 м    3/3 1000 м 
[Cu hum]
+14.3 -1.2 34 +14  1021.4  1.2  758  291           
15 25.04.17 230 (ЮЗ) 20000 м    4/3 1000 м верхняя 
[Cu hum|Ci fib]
+15 -3.4 28 +15  1020.2  -1.2  758  290           
18 25.04.17 230 (ЮЗ) 25000 м    ясно 
+12.2 -0 43 +12  1020.3  758  292    +16       
21 25.04.17 230 (ЮЗ) 23000 м    ясно 
+8.7 -0.9 51 +8  1021.5  1.1  758  296           
00 26.04.17 200 (Ю) 23000 м    ясно 
+6.8 -1.9 54 +6  1021.6  758  298           
03 26.04.17 190 (Ю) 20000 м    8/0 верхняя 
[Ci fib]
+6.2 -2.7 53 +5  1021.6  758  299           
06 26.04.17 200 (Ю) 20000 м    6/0 верхняя 
[Ci fib]
+9.8 -2.4 42 +8  1021.7  0.2  759  295  +6.2         
09 26.04.17 190 (Ю) 20000 м    ясно 
+15.3 -6.1 22 +15  1021.9  0.4  759  290           
12 26.04.17 200 (Ю) 20000 м    4/0 средняя, верхняя 
[Ac und|Ci fib]
+17.7 -2.2 26 +18  1021.5  -0.3  759  287           
15 26.04.17 200 (Ю) 20000 м    8/0 верхняя 
[Ci fib]
+18 -2 26 +18  1020.2  -1.3  758  287           
18 26.04.17 210 (ЮЗ) 20000 м    8/0 верхняя 
[Ci fib]
+14.4 -1.7 33 +15  1020.6  0.3  758  290    +19       
21 26.04.17 200 (Ю) 22000 м    ясно 
+10.4 +1.2 53 +10  1021.3  0.5  758  294           
00 27.04.17 170 (Ю) 20000 м    ясно 
+9.3 +2.4 62 +9  1022  0.7  759  295           
03 27.04.17 180 (Ю) 10 км    4/0 верхняя 
[Ci fib]
+5.9 -0.1 65 +5  1020.8  -1.3  758  299           
06 27.04.17 180 (Ю) 20000 м    10/0 верхняя 
[Ci fib]
+11.7 +0.2 45 +11  1021  0.4  758  293  +5.7         
09 27.04.17 180 (Ю) 20000 м    8/0 средняя, верхняя 
[Ac trans|Ci fib]
+18.6 -3.7 22 +19  1020.4  -0.4  758  286           
12 27.04.17 220 (ЮЗ) 20000 м    10/0 средняя, верхняя 
[Ac trans|Ci fib]
+21.6 -5.1 16 +22  1019.4  -0.9  757  283           
15 27.04.17 220 (ЮЗ) 20000 м    10/0 средняя, верхняя 
[Ac trans|Ci fib]
+21.3 -9.6 12 +21  1018.6  -0.8  757  284           
18 27.04.17 210 (ЮЗ) 28000 м    10/0 средняя, верхняя 
[Ac und|Ci fib]
+17.2 -2.3 26 +18  1018.9  0.2  757  287    +22.6       
21 27.04.17 190 (Ю) 25000 м    3/0 верхняя 
[Ci fib]
+12.1 -4.8 30 +12  1019.5  0.4  757  293           
00 28.04.17 160 (Ю) 22000 м    ясно 
+8.8 -3.6 41 +9  1019.7  0.1  757  296           
03 28.04.17 190 (Ю) 20000 м    3/0 верхняя 
[Ci fib]
+6.4 -1.1 59 +7  1020.5  0.7  758  298           
06 28.04.17 200 (Ю) 20000 м    3/0 верхняя 
[Ci fib]
+15.6 +0 34 +16  1019.8  -0.4  757  289  +6.2         
Время (UTC), дата Ветер
(°,м/с) 
Видим.   Явления Облачность Т
(°С)
Тd
(°С)
f(%) Тe
(°С)
Pmin
(гПа)
dP
(гПа)
Po
(мм)
O2
(г/м3)
Тmin Tmax R s Состояние
почвы

Для получения пояснительной информации подведите курсор к названию столбца.

ПОГОДА в Светловодске - архив

Всё, что Вы хотите узнать о погоде в Светловодске - удобно и подробно!

Выберите нужную дату (начиная с 1 января 2015* года) и нажмите кнопку "Найти".
Будут отображены архивные сводки погоды по пункту Светловодск, начиная с указанной даты.


Отображать данные в формате CSV (для использования в таблицах Excel)


Внимание! Наш архив погоды предназначен исключительно для личного некоммерческого использования в познавательных целях. Если Вам необходимы официальные справки о состоянии погоды (для производственных, юридических, коммерческих и т.п. целей), обращайтесь в органы Росгидромета.

*Примечание: данная дата относится к архиву по метеостанциям СССР (Россия, СНГ, Балтия).
Архив по метеостанциям Зарубежной Европы и Азии (кроме Китая) хранится 10 дней, по другим регионам земного шара (Китай, Африка, Америка, Австралия, Океания) - 1 день.

Светловодск - район местоположения метеостанции


Название, широта, долгота, высота метеостанции:
Светловодск 49.1°ш. 33.2°д. 84 м над ур. моря [Украина]

Дополнительная информация

В oтличие oт бoльшинства пoгoдных сайтoв мы публикуем пoдрoбную метеoинфoрмацию в детальнoм прoфессиoнальнoм фoрмате.

Характеристики температуры и влажнoсти вoздуха измеряются на высoте 2 м в тени вдали oт зданий и деревьев.
Скoрoсть ветра измеряется на высoте 10 м (на урoвне рoста челoвека скoрoсть ветра ниже в 1.5-2 раза). Если метеoстанция нахoдится в гoрoде или в лесу, тo скoрoсть ветра занижена на 2-4 м/с пo сравнению с oткрытым местoм. Скoрoсть ветра над акватoриями крупных рек и oзёр, а также на вершинах хoлмoв на 2-5 м/с выше, чем в oбычных услoвиях.
Атмoсфернoе давление в разных тoчках местнoсти мoжет значительнo oтличаться oт давления на метеoстанции, в зависимoсти oт услoвий рельефа (при пoдъёме на 10 м давление пoнижается примернo на 1 мм рт.ст.).